When you browse on this site, cookies collect data to enhance your experience and personalize the content and advertising you see.
Visit our Privacy Policy to learn more. By continuing to use the site, you agree to this use of cookies and data.
  • en Suisse
  • Liste des pays
  • À 7 jours
  • Température de l'eau
  • Carte météo
  • Widgets météo
  • user-avatar
    Se connecter

    Météo par heure à Yangchun

    Ce jour, 6 Juin, Samedi

    Heure Température Précipitation Vent Pression Humidité
    00:00 +26°C° 0 mm 0 m/s 751 mmHg 93%
    01:00 +26°C° 0 mm 0 m/s 751 mmHg 95%
    02:00 +26°C° 0.1 mm 0 m/s 751 mmHg 95%
    03:00 +26°C° 0.1 mm 0 m/s 751 mmHg 95%
    04:00 +26°C° 0.1 mm 0 m/s 751 mmHg 95%
    05:00 +26°C° 0 mm 0 m/s 751 mmHg 92%
    06:00 +27°C° 0 mm 0 m/s 751 mmHg 90%
    07:00 +28°C° 0 mm 0 m/s 752 mmHg 83%
    08:00 +32°C° 0 mm 1 m/s 752 mmHg 76%
    09:00 +34°C° 0 mm 2 m/s 752 mmHg 70%
    10:00 +36°C° 0 mm 3 m/s 752 mmHg 63%
    11:00 +36°C° 1.2 mm 3 m/s 752 mmHg 65%
    12:00 +35°C° 1.2 mm 4 m/s 751 mmHg 67%
    13:00 +35°C° 0 mm 4 m/s 751 mmHg 67%
    14:00 +35°C° 0.5 mm 4 m/s 751 mmHg 69%
    15:00 +34°C° 0.5 mm 4 m/s 750 mmHg 72%
    16:00 +34°C° 0.5 mm 3 m/s 750 mmHg 74%
    17:00 +33°C° 0.1 mm 3 m/s 750 mmHg 79%
    18:00 +31°C° 0.1 mm 2 m/s 750 mmHg 84%
    19:00 +29°C° 0.1 mm 1 m/s 751 mmHg 89%
    20:00 +29°C° 0 mm 1 m/s 751 mmHg 90%
    21:00 +29°C° 0 mm 1 m/s 751 mmHg 92%
    22:00 +29°C° 0 mm 1 m/s 752 mmHg 93%
    23:00 +29°C° 0 mm 1 m/s 752 mmHg 94%

    Demain, 7 Juin, Dimanche

    Heure Température Précipitation Vent Pression Humidité
    00:00 +28°C° 0 mm 1 m/s 751 mmHg 94%
    01:00 +28°C° 0 mm 1 m/s 751 mmHg 95%
    02:00 +28°C° 0.2 mm 1 m/s 751 mmHg 95%
    03:00 +26°C° 0.2 mm 0 m/s 751 mmHg 95%
    04:00 +26°C° 0.2 mm 0 m/s 751 mmHg 95%
    05:00 +29°C° 0.8 mm 1 m/s 751 mmHg 91%
    06:00 +30°C° 0.8 mm 1 m/s 751 mmHg 88%
    07:00 +31°C° 0.8 mm 1 m/s 751 mmHg 84%
    08:00 +32°C° 1.2 mm 2 m/s 751 mmHg 81%
    09:00 +33°C° 1.2 mm 3 m/s 751 mmHg 77%
    10:00 +34°C° 1.2 mm 4 m/s 751 mmHg 73%
    11:00 +34°C° 1.2 mm 3 m/s 751 mmHg 74%
    12:00 +34°C° 1.2 mm 3 m/s 750 mmHg 75%
    13:00 +33°C° 1.2 mm 3 m/s 750 mmHg 76%
    14:00 +32°C° 0.9 mm 2 m/s 750 mmHg 80%
    15:00 +31°C° 0.9 mm 2 m/s 749 mmHg 83%
    16:00 +31°C° 0.9 mm 2 m/s 749 mmHg 86%
    17:00 +30°C° 0.2 mm 2 m/s 749 mmHg 88%
    18:00 +29°C° 0.2 mm 1 m/s 749 mmHg 90%
    19:00 +29°C° 0.2 mm 1 m/s 750 mmHg 91%
    20:00 +29°C° 0 mm 1 m/s 750 mmHg 93%
    21:00 +29°C° 0 mm 1 m/s 750 mmHg 94%
    22:00 +29°C° 0 mm 1 m/s 751 mmHg 95%
    23:00 +29°C° 0.2 mm 1 m/s 750 mmHg 95%

    Après-demain, 8 Juin, Lundi

    Heure Température Précipitation Vent Pression Humidité
    00:00 +29°C° 0.2 mm 1 m/s 750 mmHg 95%
    01:00 +29°C° 0.2 mm 1 m/s 750 mmHg 95%
    02:00 +29°C° 1.2 mm 1 m/s 750 mmHg 94%
    03:00 +28°C° 1.2 mm 1 m/s 750 mmHg 94%
    04:00 +28°C° 1.2 mm 1 m/s 749 mmHg 93%
    05:00 +29°C° 1 mm 1 m/s 750 mmHg 92%
    06:00 +29°C° 1 mm 1 m/s 751 mmHg 91%
    07:00 +29°C° 1 mm 2 m/s 751 mmHg 90%
    08:00 +30°C° 0.9 mm 2 m/s 751 mmHg 88%
    09:00 +30°C° 0.9 mm 2 m/s 752 mmHg 86%
    10:00 +31°C° 0.9 mm 3 m/s 752 mmHg 84%
    11:00 +31°C° 0.5 mm 3 m/s 752 mmHg 82%
    12:00 +31°C° 0.5 mm 3 m/s 751 mmHg 80%
    13:00 +33°C° 0.5 mm 4 m/s 751 mmHg 78%
    14:00 +33°C° 0.3 mm 3 m/s 751 mmHg 79%
    15:00 +33°C° 0.3 mm 3 m/s 750 mmHg 80%
    16:00 +33°C° 0.3 mm 3 m/s 750 mmHg 80%
    17:00 +31°C° 0.5 mm 2 m/s 751 mmHg 84%
    18:00 +30°C° 0.5 mm 2 m/s 751 mmHg 88%
    19:00 +29°C° 0.5 mm 1 m/s 751 mmHg 92%
    20:00 +29°C° 0.6 mm 1 m/s 752 mmHg 93%
    21:00 +29°C° 0.6 mm 1 m/s 752 mmHg 94%
    22:00 +28°C° 0.6 mm 1 m/s 753 mmHg 95%
    23:00 +28°C° 0.5 mm 1 m/s 752 mmHg 95%

    9 Juin, Mardi

    Heure Température Précipitation Vent Pression Humidité
    00:00 +28°C° 0.5 mm 1 m/s 752 mmHg 94%
    01:00 +28°C° 0.5 mm 1 m/s 752 mmHg 94%
    02:00 +28°C° 0.2 mm 1 m/s 752 mmHg 93%
    03:00 +28°C° 0.2 mm 1 m/s 751 mmHg 93%
    04:00 +28°C° 0.2 mm 1 m/s 751 mmHg 92%
    05:00 +28°C° 0.2 mm 1 m/s 752 mmHg 90%
    06:00 +29°C° 0.2 mm 1 m/s 752 mmHg 89%
    07:00 +29°C° 0.2 mm 1 m/s 753 mmHg 87%
    08:00 +30°C° 0.3 mm 2 m/s 753 mmHg 84%
    09:00 +31°C° 0.3 mm 3 m/s 753 mmHg 81%
    10:00 +31°C° 0.3 mm 3 m/s 753 mmHg 78%
    11:00 +33°C° 0.3 mm 4 m/s 753 mmHg 77%
    12:00 +33°C° 0.3 mm 4 m/s 752 mmHg 75%
    13:00 +34°C° 0.3 mm 5 m/s 752 mmHg 73%
    14:00 +33°C° 0.1 mm 4 m/s 752 mmHg 76%
    15:00 +33°C° 0.1 mm 4 m/s 751 mmHg 79%
    16:00 +32°C° 0.1 mm 4 m/s 751 mmHg 81%
    17:00 +31°C° 0.5 mm 3 m/s 752 mmHg 85%
    18:00 +30°C° 0.5 mm 2 m/s 752 mmHg 89%
    19:00 +29°C° 0.5 mm 2 m/s 752 mmHg 93%
    20:00 +28°C° 0.1 mm 1 m/s 753 mmHg 94%
    21:00 +28°C° 0.1 mm 1 m/s 753 mmHg 95%
    22:00 +28°C° 0.1 mm 1 m/s 753 mmHg 95%
    23:00 +28°C° 0.1 mm 1 m/s 753 mmHg 95%

    10 Juin, Mercredi

    Heure Température Précipitation Vent Pression Humidité
    00:00 +28°C° 0.1 mm 1 m/s 753 mmHg 96%
    01:00 +28°C° 0.1 mm 1 m/s 752 mmHg 96%
    02:00 +28°C° 0.1 mm 1 m/s 752 mmHg 96%
    03:00 +28°C° 0.1 mm 1 m/s 752 mmHg 96%
    04:00 +27°C° 0.1 mm 1 m/s 752 mmHg 96%
    05:00 +28°C° 0.2 mm 1 m/s 752 mmHg 92%
    06:00 +29°C° 0.2 mm 2 m/s 753 mmHg 89%
    07:00 +30°C° 0.2 mm 2 m/s 753 mmHg 86%
    08:00 +31°C° 0.8 mm 3 m/s 753 mmHg 83%
    09:00 +31°C° 0.8 mm 3 m/s 753 mmHg 80%
    10:00 +33°C° 0.8 mm 4 m/s 754 mmHg 77%
    11:00 +33°C° 1.5 mm 4 m/s 753 mmHg 77%
    12:00 +33°C° 1.5 mm 4 m/s 753 mmHg 77%
    13:00 +33°C° 1.5 mm 4 m/s 752 mmHg 78%
    14:00 +33°C° 0.2 mm 4 m/s 752 mmHg 78%
    15:00 +33°C° 0.2 mm 4 m/s 751 mmHg 78%
    16:00 +33°C° 0.2 mm 3 m/s 751 mmHg 79%
    17:00 +31°C° 0.1 mm 3 m/s 751 mmHg 83%
    18:00 +30°C° 0.1 mm 2 m/s 751 mmHg 88%
    19:00 +29°C° 0.1 mm 1 m/s 752 mmHg 93%
    20:00 +28°C° 0.1 mm 1 m/s 752 mmHg 94%
    21:00 +28°C° 0.1 mm 1 m/s 752 mmHg 95%
    22:00 +28°C° 0.1 mm 1 m/s 753 mmHg 96%
    23:00 +28°C° 0.2 mm 1 m/s 752 mmHg 96%

    11 Juin, Jeudi

    Heure Température Précipitation Vent Pression Humidité
    00:00 +28°C° 0.2 mm 1 m/s 752 mmHg 96%
    01:00 +28°C° 0.2 mm 1 m/s 752 mmHg 96%
    02:00 +28°C° 0.3 mm 1 m/s 752 mmHg 96%
    03:00 +28°C° 0.3 mm 1 m/s 751 mmHg 95%
    04:00 +27°C° 0.3 mm 1 m/s 751 mmHg 95%
    05:00 +28°C° 0.1 mm 1 m/s 752 mmHg 93%
    06:00 +29°C° 0.1 mm 2 m/s 752 mmHg 90%
    07:00 +30°C° 0.1 mm 2 m/s 752 mmHg 87%
    08:00 +31°C° 0.3 mm 3 m/s 752 mmHg 82%
    09:00 +33°C° 0.3 mm 4 m/s 752 mmHg 78%
    10:00 +34°C° 0.3 mm 4 m/s 752 mmHg 73%
    11:00 +34°C° 0.3 mm 5 m/s 752 mmHg 73%
    12:00 +34°C° 0.3 mm 5 m/s 751 mmHg 72%
    13:00 +34°C° 0.3 mm 5 m/s 751 mmHg 72%
    14:00 +34°C° 0.2 mm 5 m/s 750 mmHg 74%
    15:00 +33°C° 0.2 mm 5 m/s 750 mmHg 76%
    16:00 +33°C° 0.2 mm 4 m/s 750 mmHg 79%
    17:00 +31°C° 0.1 mm 3 m/s 750 mmHg 83%
    18:00 +30°C° 0.1 mm 3 m/s 750 mmHg 88%
    19:00 +29°C° 0.1 mm 2 m/s 751 mmHg 93%
    20:00 +29°C° 0 mm 2 m/s 751 mmHg 94%
    21:00 +28°C° 0 mm 2 m/s 751 mmHg 95%
    22:00 +28°C° 0 mm 1 m/s 752 mmHg 96%
    23:00 +28°C° 0.2 mm 1 m/s 752 mmHg 97%
    Voir plus